Location: Izdebno
(52.6670°N, 16.2170°E)
Time: 07:34:39
(UTC+02:00)

Vanguard 1 - Pass Details

Date: 03 March 2024
Orbit: 653 x 3825 km, 34.2° (Epoch: 22 April)

Event Time Altitude Azimuth Distance (km) Brightness Sun altitude
Rises 18:08:10 0° 223° (SW) 4,561 14.3 -5.3°
Reaches altitude 10° 18:11:11 10° 212° (SSW) 3,945 13.7 -5.8°
Maximum altitude 18:20:25 31° 155° (SSE) 3,564 12.7 -7.2°
Drops below altitude 10° 18:34:55 10° 104° (ESE) 6,256 13.5 -9.4°
Enters shadow 18:35:29 - 103° (ESE) 6,379 13.5 -9.4°
